Content
SEND FEEDBACK

Daily
Averages
Monthly
Summary
Netherlands

AMSTERDAM, NETHERLANDS


Home > Europe > Netherlands
Elevation: 7 feet     Latitude: 52 18N     Longitude: 004 46E

WEATHER
 
SELECT A DAY
Number of Records: 302,838;   Date Range: 7/1/96 - 8/19/14
 
SHARE

PRINT THIS DATA

[ ← Previous Day ]
WEATHER ALMANAC - APRIL 27, 2013
[ Next Day → ]
[ °C ]   °F
Weather ElementAverageHighLow
Temperature43.8 °F51.8 °F (4:25 pm)37.4 °F (5:25 am)
Dewpoint34.7 °F37.4 °F (12:55 am)31 °F (5:00 pm)
Humidity70.9 %93 % (12:55 am)37 % (5:00 pm)
Barometer29.91 in30.02 in (11:00 pm)29.83 in (2:25 am)
Wind Speed9 mph15.7 mph (5:00 pm)
Weather ElementAverage
Visibility8.2 mi
Wind DirectionSSE (164.9 °)

Weather ElementTotal
Precipitation---
Heating Degree Days20.4 (Base 65)
Averaged from 55 records on April 27, 2013
WEATHER CONDITIONS BREAKOUT
WIND DIRECTION BREAKOUT
WEATHER BY HOUR - APRIL 27, 2013
[ °C ]   °F
Local TimeTemperatureDewpointHumidityBarometerVisibilityWind DirectionWind SpeedGust SpeedPrecipitationEventsConditions
12:55 AM39.2 °F37.4 °F93 %29.86 inNW (310°)2.3 mphClear
1:25 AM39.2 °F35.6 °F87 %29.86 inNW (310°)4.6 mphClear
1:55 AM39.2 °F35.6 °F87 %29.86 in6.2 miNNW (330°)4.6 mphPartly Cloudy
2:00 AM38.0 °F36.0 °F90 %29.86 in11.0 miNNW (330°)4.5 mphPartly Cloudy
2:25 AM39.2 °F37.4 °F93 %29.83 in6.2 miNNW (330°)3.5 mphPartly Cloudy
2:55 AM39.2 °F37.4 °F93 %29.83 in6.2 miNNW (330°)3.5 mphScattered Clouds
3:25 AM39.2 °F35.6 °F87 %29.83 in6.2 miNNW (330°)3.5 mphScattered Clouds
3:55 AM39.2 °F37.4 °F93 %29.83 in6.2 miNNW (330°)3.5 mphPartly Cloudy
4:25 AM39.2 °F35.6 °F87 %29.83 in6.2 miNNW (340°)3.5 mphPartly Cloudy
4:55 AM39.2 °F37.4 °F93 %29.83 in6.2 miNorth (350°)3.5 mphPartly Cloudy
5:00 AM38.0 °F36.0 °F88 %29.86 in12.0 miNNW (330°)2.2 mphMostly Cloudy
5:25 AM37.4 °F35.6 °F93 %29.86 in6.2 miNorth (350°)5.8 mphPartly Cloudy
5:55 AM37.4 °F35.6 °F93 %29.86 in6.2 miNorth (350°)4.6 mphPartly Cloudy
6:25 AM37.4 °F35.6 °F93 %29.86 in6.2 miNorth (360°)3.5 mphPartly Cloudy
6:55 AM37.4 °F35.6 °F93 %29.86 in6.2 miNorth (360°)3.5 mphPartly Cloudy
7:25 AM39.2 °F35.6 °F87 %29.86 in6.2 miNorth (360°)4.6 mphPartly Cloudy
7:55 AM41.0 °F37.4 °F87 %29.86 in6.2 miNNE (20°)4.6 mphPartly Cloudy
8:00 AM41.0 °F36.0 °F78 %29.88 in17.0 miNorth (10°)4.5 mphPartly Cloudy
8:25 AM41.0 °F35.6 °F81 %29.86 in6.2 miNorth (350°)5.8 mphPartly Cloudy
8:55 AM42.8 °F35.6 °F76 %29.86 in6.2 miNorth (360°)6.9 mphPartly Cloudy
9:25 AM44.6 °F37.4 °F76 %29.86 in6.2 miNNE (20°)9.2 mphPartly Cloudy
9:55 AM44.6 °F35.6 °F71 %29.89 in6.2 miNNE (30°)9.2 mphPartly Cloudy
10:25 AM46.4 °F37.4 °F71 %29.89 in6.2 miNNE (20°)9.2 mphPartly Cloudy
10:55 AM46.4 °F35.6 °F66 %29.89 in6.2 miNNE (20°)8.1 mphPartly Cloudy
11:00 AM47.0 °F36.0 °F54 %29.91 in19.0 miNorth (10°)8.9 mph
11:25 AM46.4 °F35.6 °F66 %29.89 in6.2 miNorth (10°)9.2 mphPartly Cloudy
11:55 AM48.2 °F35.6 °F62 %29.92 in6.2 miNorth (10°)10.4 mphScattered Clouds
12:25 PM50.0 °F35.6 °F58 %29.92 in6.2 miNNE (30°)11.5 mphPartly Cloudy
12:55 PM50.0 °F35.6 °F58 %29.92 in6.2 miNorth (10°)12.7 mphPartly Cloudy
1:25 PM48.2 °F33.8 °F58 %29.92 in6.2 miNorth (10°)11.5 mphPartly Cloudy
1:55 PM50.0 °F33.8 °F54 %29.92 in6.2 miNNE (30°)12.7 mphPartly Cloudy
2:00 PM51.0 °F33.0 °F38 %29.94 in17.0 miNNE (20°)13.4 mphPartly Cloudy
2:25 PM48.2 °F32.0 °F54 %29.92 in6.2 miNNE (20°)15.0 mphPartly Cloudy
2:55 PM50.0 °F32.0 °F50 %29.92 in6.2 miNNE (20°)13.8 mphPartly Cloudy
3:25 PM50.0 °F33.8 °F54 %29.92 in6.2 miNorth (10°)13.8 mphPartly Cloudy
3:55 PM50.0 °F32.0 °F50 %29.92 in6.2 miNorth (360°)15.0 mphPartly Cloudy
4:25 PM51.8 °F32.0 °F47 %29.92 in6.2 miNorth (350°)13.8 mphPartly Cloudy
4:55 PM50.0 °F33.8 °F54 %29.92 in6.2 miNNE (20°)13.8 mphPartly Cloudy
5:00 PM50.0 °F31.0 °F37 %29.95 in22.0 miNNE (20°)15.7 mphScattered Clouds
5:25 PM48.2 °F32.0 °F54 %29.95 in6.2 miNorth (10°)13.8 mphPartly Cloudy
5:55 PM48.2 °F32.0 °F54 %29.95 in6.2 miNNE (20°)15.0 mphPartly Cloudy
6:25 PM48.2 °F33.8 °F58 %29.95 in6.2 miNNE (20°)15.0 mphPartly Cloudy
6:55 PM46.4 °F33.8 °F62 %29.95 in6.2 miNorth (10°)13.8 mphPartly Cloudy
7:25 PM46.4 °F32.0 °F57 %29.95 in6.2 miNNE (20°)15.0 mphPartly Cloudy
7:55 PM46.4 °F33.8 °F62 %29.95 in6.2 miNNE (20°)12.7 mphPartly Cloudy
8:00 PM46.0 °F32.0 °F47 %29.97 in28.0 miNNE (20°)13.4 mphPartly Cloudy
8:25 PM44.6 °F32.0 °F61 %29.98 in6.2 miNorth (10°)11.5 mphPartly Cloudy
8:55 PM42.8 °F32.0 °F66 %29.98 in6.2 miNorth (10°)11.5 mphPartly Cloudy
9:25 PM42.8 °F32.0 °F66 %29.98 in6.2 miNorth (10°)10.4 mphPartly Cloudy
9:55 PM42.8 °F33.8 °F70 %30.01 in6.2 miNorth (10°)9.2 mphPartly Cloudy
10:25 PM41.0 °F33.8 °F76 %30.01 in6.2 miNorth (350°)10.4 mphPartly Cloudy
10:55 PM41.0 °F35.6 °F81 %30.01 inNNW (340°)9.2 mphClear
11:00 PM40.0 °F35.0 °F75 %30.02 in25.0 miNorth (350°)8.9 mph
11:25 PM39.2 °F33.8 °F81 %30.01 inNorth (350°)8.1 mphClear
11:55 PM39.2 °F33.8 °F81 %30.01 inNorth (360°)6.9 mphClear
Hourly data recorded from EHAM, located miles away from Amsterdam, Netherlands







STORIES FROM OUR PARTNERS